Find Starlink 34170

NORAD ID: 63955 Int'l Des: 2025-099 Owner: SPXS Country: US Constellation: starlink operational
LEOCIRCULAR

Live Position

Loading 3D Globe...

About Starlink 34170

Description loading...

Upcoming Passes

Passes for default location (London). Set your location on the main map for personalized predictions.

Altitude History

Loading altitude history...

Two-Line Element Set

1 63955U 25099D 26106.03361499 .00010253 00000-0 38147-3 0 9990
2 63955 43.0011 325.6677 0001341 269.1821 90.8877 15.27591325 53033
Epoch: Apr 16, 2026 • Age: 19 hours

Current Status

Altitude 485.9 km
Velocity 7.63 km/s
Sub-Earth Point 37.96°N, 62.31°W
Launch Date May 13, 2025
Age 0.9 years
Type internet

Technical Details

Classification Payload
Mass 575.00 kg
Dry Mass 530.00 kg
Total Mass 575.00 kg
Length 0.30 m
Diameter 4.10 m
Span 29.00 m
Shape Box + pan
Manufacturer SPXS
Bus Type Starlink V2MO
Phase Status In Orbit
Owner/State SPXS/US

Most Searched